QPF
0.00 0.00 0.00 0.00 0.00 0.00 0.00 0.00 0.00 0.00 0.00 0.00 0.00 0.00 0.00 0.00 0.00 0.00 0.00 0.00 0.00 0.00 0.00 0.00 0.00 0.00 0.00 0.00 0.00 0.00 0.00 0.00 0.00 0.00 0.00 0.00 0.00 0.00 0.00 0.00 0.00 0.00 0.00
0.00 0.00 0.00 0.00 0.00 0.00 0.00 0.00 0.00 0.00 0.00 0.00 0.00 0.00 0.00 0.00 0.00 0.00 0.00 0.00 0.00 0.00 0.00 0.00 0.00 0.00 0.00 0.00 0.00 0.00 0.00 0.00 0.00 0.00 0.00 0.00 0.00 0.00 0.00 0.00 0.00 0.00 0.00
0.00 0.00 0.00 0.00 0.00 0.00 0.00 0.00 0.00 0.00 0.00 0.00 0.00 0.00 0.00 0.00 0.00 0.00 0.00 0.00 0.00 0.00 0.00 0.00 0.00 0.00 0.00 0.00 0.00 0.00 0.00 0.00 0.00 0.00 0.00 0.00 0.00 0.00 0.00 0.00 0.00 0.00 0.00
0.00 0.00 0.00 0.00 0.00 0.00 0.00 0.00 0.00 0.00 0.00 0.00 0.00 0.00 0.00 0.00 0.00 0.00 0.00 0.00 0.00 0.00 0.00 0.00 0.00 0.00 0.00 0.00 0.00 0.00 0.00 0.00 0.00 0.00 0.00 0.00 0.00 0.00 0.00 0.00 0.00 0.00 0.00
0.00 0.00 0.00 0.00 0.00 0.00 0.00 0.00 0.00 0.00 0.00 0.00 0.00 0.00 0.00 0.00 0.00 0.00 0.00 0.00 0.00 0.00 0.00 0.00 0.00 0.00 0.00 0.00 0.00 0.00 0.00 0.00 0.00 0.00 0.00 0.00 0.00 0.00 0.00 0.00 0.00 0.00 0.00
0.00 0.00 0.00 0.00 0.00 0.00 0.00 0.00 0.00 0.00 0.00 0.00 0.00 0.00 0.00 0.00 0.00 0.00 0.00 0.00 0.00 0.00 0.00 0.00 0.00 0.00 0.00 0.00 0.00 0.00 0.00 0.00 0.00 0.00 0.00 0.00 0.00 0.00 0.00 0.00 0.00 0.00 0.00
0.00 0.00 0.00 0.00 0.00 0.00 0.00 0.00 0.00 0.00 0.00 0.00 0.00 0.00 0.00 0.00 0.00 0.00 0.00 0.00 0.00 0.00 0.00 0.00 0.00 0.00 0.00 0.00 0.00 0.00 0.00 0.00 0.00 0.00 0.00 0.00 0.00 0.00 0.00 0.00 0.00 0.00 0.00
0.00 0.00 0.00 0.00 0.02 0.01 0.01 0.01 0.01 0.01 0.01 0.00 0.00 0.00 0.00 0.00 0.00 0.00 0.00 0.00 0.00 0.00 0.00 0.00 0.00 0.00 0.00 0.00 0.00 0.00 0.00 0.00 0.00 0.00 0.00 0.00 0.00 0.00 0.00 0.00 0.00 0.00 0.00
0.01 0.00 0.00 0.00 0.02 0.08 0.06 0.08 0.08 0.08 0.07 0.05 0.03 0.02 0.01 0.01 0.01 0.01 0.01 0.01 0.01 0.01 0.00 0.00 0.00 0.00 0.00 0.00 0.00 0.00 0.00 0.00 0.00 0.00 0.00 0.00 0.00 0.00 0.00 0.00 0.00 0.00 0.00
0.01 0.01 0.01 0.01 0.01 0.02 0.02 0.06 0.07 0.04 0.02 0.01 0.02 0.03 0.04 0.04 0.03 0.03 0.03 0.03 0.02 0.01 0.01 0.01 0.01 0.00 0.00 0.00 0.00 0.00 0.00 0.00 0.00 0.00 0.00 0.00 0.00 0.00 0.00 0.00 0.00 0.00 0.00
0.02 0.02 0.02 0.02 0.02 0.01 0.00 0.00 0.00 0.00 0.00 0.00 0.00 0.00 0.02 0.03 0.04 0.04 0.04 0.03 0.02 0.02 0.02 0.01 0.00 0.00 0.00 0.00 0.00 0.00 0.00 0.00 0.00 0.00 0.00 0.00 0.00 0.00 0.00 0.00 0.00 0.00 0.00
0.09 0.08 0.09 0.07 0.05 0.04 0.01 0.00 0.00 0.00 0.00 0.00 0.00 0.00 0.00 0.00 0.00 0.01 0.02 0.02 0.01 0.01 0.01 0.00 0.00 0.00 0.00 0.00 0.00 0.00 0.00 0.00 0.00 0.00 0.00 0.00 0.00 0.00 0.00 0.00 0.00 0.00 0.00
0.08 0.09 0.09 0.10 0.11 0.11 0.09 0.06 0.03 0.01 0.00 0.00 0.00 0.00 0.00 0.00 0.00 0.00 0.00 0.00 0.00 0.00 0.00 0.00 0.00 0.00 0.00 0.00 0.00 0.00 0.00 0.00 0.00 0.00 0.00 0.00 0.00 0.00 0.00 0.00 0.00 0.00 0.00
0.05 0.07 0.08 0.08 0.09 0.10 0.10 0.09 0.08 0.07 0.05 0.04 0.02 0.01 0.00 0.00 0.00 0.00 0.00 0.00 0.00 0.00 0.00 0.00 0.00 0.00 0.00 0.00 0.00 0.00 0.00 0.00 0.00 0.00 0.00 0.00 0.00 0.00 0.00 0.00 0.00 0.00 0.00
0.02 0.04 0.05 0.06 0.06 0.07 0.08 0.07 0.07 0.06 0.06 0.06 0.05 0.05 0.05 0.04 0.03 0.02 0.01 0.00 0.00 0.00 0.00 0.00 0.00 0.00 0.00 0.00 0.00 0.00 0.00 0.00 0.00 0.00 0.00 0.00 0.00 0.00 0.00 0.00 0.00 0.00 0.00
0.02 0.02 0.02 0.03 0.04 0.04 0.05 0.06 0.06 0.07 0.07 0.06 0.06 0.05 0.04 0.04 0.05 0.06 0.06 0.05 0.05 0.04 0.03 0.02 0.01 0.00 0.00 0.00 0.00 0.00 0.00 0.00 0.00 0.00 0.00 0.00 0.00 0.00 0.00 0.00 0.00 0.00 0.00
0.01 0.01 0.02 0.02 0.02 0.03 0.04 0.04 0.04 0.05 0.05 0.06 0.06 0.06 0.06 0.05 0.04 0.05 0.05 0.05 0.05 0.06 0.06 0.05 0.04 0.03 0.02 0.01 0.01 0.01 0.00 0.00 0.00 0.00 0.00 0.00 0.00 0.00 0.00 0.00 0.00 0.00 0.00
0.00 0.00 0.00 0.00 0.01 0.01 0.01 0.01 0.01 0.02 0.03 0.04 0.05 0.05 0.06 0.05 0.05 0.05 0.05 0.05 0.05 0.04 0.03 0.02 0.02 0.01 0.00 0.00 0.01 0.01 0.00 0.00 0.00 0.00 0.00 0.00 0.00 0.00 0.00 0.00 0.00 0.00 0.00
0.00 0.00 0.00 0.00 0.00 0.00 0.00 0.00 0.00 0.00 0.00 0.00 0.01 0.01 0.03 0.04 0.05 0.05 0.04 0.04 0.04 0.03 0.02 0.01 0.01 0.01 0.00 0.00 0.01 0.01 0.01 0.00 0.00 0.00 0.00 0.00 0.00 0.00 0.00 0.00 0.00 0.00 0.00
0.00 0.00 0.00 0.00 0.00 0.00 0.00 0.00 0.00 0.00 0.00 0.00 0.00 0.00 0.00 0.00 0.01 0.01 0.02 0.02 0.02 0.02 0.01 0.00 0.00 0.00 0.00 0.00 0.00 0.00 0.00 0.00 0.00 0.00 0.00 0.00 0.00 0.00 0.00 0.00 0.00 0.00 0.00
0.00 0.00 0.00 0.00 0.00 0.00 0.00 0.00 0.00 0.00 0.00 0.00 0.00 0.00 0.00 0.00 0.00 0.00 0.00 0.00 0.00 0.00 0.00 0.00 0.00 0.00 0.00 0.00 0.00 0.00 0.00 0.01 0.00 0.00 0.00 0.00 0.00 0.00 0.00 0.00 0.01 0.01 0.00
0.00 0.00 0.00 0.00 0.00 0.00 0.00 0.00 0.00 0.00 0.00 0.00 0.00 0.00 0.00 0.00 0.00 0.00 0.00 0.00 0.00 0.00 0.00 0.00 0.00 0.00 0.00 0.00 0.00 0.00 0.00 0.00 0.01 0.01 0.00 0.00 0.00 0.00 0.00 0.00 0.00 0.02 0.03
0.00 0.00 0.00 0.00 0.00 0.00 0.00 0.00 0.00 0.00 0.00 0.00 0.00 0.00 0.00 0.00 0.00 0.00 0.00 0.00 0.00 0.00 0.00 0.00 0.00 0.00 0.00 0.00 0.00 0.00 0.00 0.00 0.00 0.01 0.02 0.01 0.00 0.00 0.00 0.00 0.00 0.00 0.01
0.00 0.00 0.00 0.00 0.00 0.00 0.00 0.00 0.00 0.00 0.00 0.00 0.00 0.00 0.00 0.00 0.00 0.00 0.00 0.00 0.00 0.00 0.00 0.00 0.00 0.00 0.00 0.00 0.00 0.00 0.00 0.00 0.00 0.01 0.02 0.03 0.05 0.07 0.08 0.06 0.03 0.01 0.01
0.00 0.00 0.00 0.00 0.00 0.00 0.00 0.00 0.00 0.00 0.00 0.00 0.00 0.00 0.00 0.00 0.00 0.00 0.00 0.00 0.00 0.00 0.00 0.00 0.00 0.00 0.00 0.00 0.00 0.00 0.00 0.00 0.00 0.00 0.00 0.00 0.00 0.00 0.00 0.01 0.02 0.02 0.01
0.00 0.00 0.00 0.00 0.00 0.00 0.00 0.00 0.00 0.00 0.00 0.00 0.00 0.00 0.00 0.00 0.00 0.00 0.00 0.00 0.01 0.01 0.02 0.03 0.05 0.04 0.02 0.01 0.01 0.03 0.04 0.04 0.04 0.05 0.02 0.00 0.00 0.00 0.00 0.00 0.00 0.00 0.00
MSLP
1011.34 1012.06 1012.60 1013.05 1013.37 1014.21 1015.39 1016.13 1016.69 1017.51 1018.16 1018.97 1019.92 1020.88 1021.55 1022.19 1022.49 1022.58 1022.82 1023.15 1023.45 1023.75 1023.98 1024.41 1024.76 1024.98 1025.22 1025.87 1026.33 1027.23 1027.95 1029.06 1029.43 1029.89 1031.52 1032.14 1032.28 1032.38 1032.45 1032.33 1032.27 1032.16 1032.19
1011.53 1011.80 1012.44 1013.11 1013.43 1013.85 1014.83 1015.93 1016.93 1017.67 1018.15 1018.61 1019.60 1020.56 1021.50 1022.59 1022.89 1023.00 1023.46 1023.56 1023.79 1024.17 1024.34 1024.56 1024.99 1025.26 1025.58 1026.23 1026.59 1027.04 1028.34 1029.29 1029.55 1030.23 1031.07 1032.61 1033.12 1032.97 1032.88 1032.85 1032.76 1033.00 1032.80
1011.78 1011.86 1012.27 1012.94 1013.75 1014.13 1014.54 1015.63 1016.78 1017.73 1018.32 1018.94 1019.73 1020.75 1021.81 1022.68 1023.17 1023.59 1023.96 1024.17 1024.20 1024.53 1024.78 1024.95 1025.20 1025.54 1025.78 1026.36 1026.71 1027.17 1027.59 1028.87 1029.75 1029.61 1029.91 1031.71 1032.32 1033.02 1033.28 1033.31 1033.36 1033.37 1033.33
1012.25 1012.70 1013.19 1013.92 1014.46 1015.05 1015.50 1015.86 1016.82 1017.79 1018.67 1019.15 1019.77 1020.31 1021.10 1022.14 1023.01 1023.58 1024.02 1024.51 1024.68 1024.88 1025.26 1025.34 1025.61 1025.87 1026.24 1026.65 1026.90 1027.30 1027.70 1028.16 1029.24 1029.83 1029.87 1029.85 1030.40 1031.97 1033.49 1033.58 1033.55 1033.52 1033.48
1012.60 1012.69 1013.33 1014.11 1014.93 1015.69 1016.13 1016.76 1017.16 1017.95 1018.79 1019.46 1019.91 1020.41 1021.33 1022.27 1023.06 1023.86 1024.36 1024.84 1025.06 1025.16 1025.59 1025.68 1026.00 1026.35 1026.68 1027.00 1027.25 1027.60 1028.00 1028.32 1029.11 1029.48 1030.23 1030.56 1030.80 1030.92 1031.62 1033.09 1033.56 1033.58 1033.68
1012.77 1013.31 1014.01 1014.81 1015.51 1016.19 1016.90 1017.43 1017.91 1018.40 1018.92 1019.59 1020.35 1020.82 1021.50 1022.42 1023.28 1024.07 1024.71 1025.24 1025.31 1025.71 1025.98 1026.19 1026.59 1026.81 1027.18 1027.41 1027.77 1027.99 1028.33 1028.77 1029.12 1029.51 1029.89 1030.31 1030.74 1031.33 1031.60 1032.59 1033.46 1033.75 1033.89
1016.11 1015.75 1015.74 1016.11 1016.59 1017.03 1017.45 1017.98 1018.54 1019.26 1019.70 1020.13 1020.66 1021.28 1021.85 1022.48 1023.33 1023.95 1024.59 1025.25 1025.74 1026.11 1026.33 1026.77 1027.02 1027.45 1027.68 1027.90 1028.18 1028.56 1028.89 1029.20 1029.52 1029.93 1030.34 1030.55 1030.89 1031.14 1031.62 1032.18 1033.24 1033.71 1034.00
1019.14 1018.41 1018.08 1017.88 1017.95 1018.16 1018.39 1018.71 1019.24 1019.94 1020.45 1020.95 1021.29 1021.76 1022.35 1022.88 1023.43 1024.01 1024.74 1025.24 1025.71 1026.20 1026.60 1026.98 1027.25 1027.68 1027.93 1028.10 1028.40 1028.89 1029.13 1029.48 1029.82 1030.15 1030.59 1030.91 1031.29 1031.51 1031.63 1032.15 1032.87 1033.76 1034.06
1021.27 1020.78 1020.32 1020.08 1019.96 1019.68 1019.81 1019.95 1020.36 1020.79 1021.26 1021.99 1022.16 1022.39 1022.77 1023.34 1023.76 1024.28 1024.84 1025.38 1025.99 1026.46 1026.91 1027.31 1027.78 1028.13 1028.32 1028.40 1028.65 1029.11 1029.43 1029.77 1030.14 1030.47 1030.84 1031.25 1031.79 1032.05 1032.12 1032.40 1032.73 1033.23 1034.12
1023.08 1022.70 1022.29 1022.13 1021.91 1021.59 1021.43 1021.42 1021.47 1021.84 1022.28 1022.63 1022.96 1023.09 1023.29 1023.79 1024.31 1024.67 1025.17 1025.61 1026.09 1026.57 1027.11 1027.60 1028.07 1028.44 1028.71 1028.79 1028.98 1029.42 1029.81 1029.96 1030.44 1030.93 1031.11 1031.56 1031.97 1032.35 1032.69 1032.76 1033.02 1033.27 1033.79
1024.90 1024.67 1024.53 1023.98 1023.60 1023.29 1023.26 1023.41 1023.29 1023.37 1023.56 1023.56 1023.60 1023.67 1024.00 1024.13 1024.65 1025.00 1025.48 1025.83 1026.33 1026.87 1027.21 1027.77 1028.28 1028.72 1029.02 1029.30 1029.38 1029.65 1030.05 1030.28 1030.62 1030.99 1031.25 1031.75 1032.12 1032.53 1032.88 1032.97 1033.17 1033.48 1033.82
1026.63 1026.17 1025.82 1025.38 1025.07 1025.00 1024.88 1024.89 1024.94 1024.83 1024.85 1024.71 1024.63 1024.86 1024.95 1025.02 1025.32 1025.59 1025.91 1026.18 1026.66 1027.14 1027.58 1027.95 1028.48 1028.98 1029.22 1029.50 1029.70 1029.94 1030.13 1030.37 1030.58 1030.97 1031.31 1031.82 1032.12 1032.41 1032.58 1032.77 1033.02 1033.20 1033.48
1027.61 1027.28 1026.79 1026.60 1026.60 1026.47 1026.29 1026.13 1026.09 1026.16 1026.08 1025.92 1025.84 1025.89 1025.97 1026.05 1026.29 1026.61 1026.85 1027.05 1027.38 1027.72 1027.94 1028.28 1028.61 1028.93 1029.26 1029.70 1029.97 1030.05 1030.17 1030.32 1030.57 1031.06 1031.25 1031.65 1031.83 1031.94 1032.12 1032.36 1032.76 1032.95 1033.07
1028.88 1028.64 1028.32 1028.15 1027.95 1027.71 1027.58 1027.48 1027.36 1027.19 1026.98 1026.75 1026.79 1026.93 1027.02 1027.01 1027.03 1027.14 1027.26 1027.52 1027.92 1028.24 1028.45 1028.71 1029.00 1029.22 1029.50 1029.68 1029.79 1029.80 1030.14 1030.33 1030.68 1031.02 1031.12 1031.34 1031.49 1031.57 1031.74 1031.97 1032.15 1032.33 1032.60
1029.83 1029.74 1029.60 1029.38 1029.17 1028.92 1028.68 1028.48 1028.31 1028.13 1027.99 1027.75 1027.62 1027.63 1027.63 1027.63 1027.63 1027.69 1027.77 1027.91 1027.99 1028.26 1028.63 1028.83 1029.13 1029.42 1029.51 1029.40 1029.48 1029.65 1029.97 1030.24 1030.50 1030.74 1030.86 1030.88 1030.88 1030.90 1031.08 1031.31 1031.54 1031.86 1032.16
1031.16 1030.88 1030.61 1030.24 1029.90 1029.70 1029.42 1029.13 1028.93 1028.74 1028.55 1028.36 1028.27 1028.19 1028.04 1027.98 1027.98 1028.02 1028.10 1028.25 1028.41 1028.56 1028.88 1028.96 1029.00 1028.99 1028.84 1028.67 1028.55 1028.61 1029.23 1029.41 1029.66 1029.95 1030.11 1030.19 1030.05 1030.10 1030.00 1029.99 1030.03 1030.97 1031.06
1032.13 1031.78 1031.51 1031.22 1030.82 1030.49 1030.13 1029.75 1029.44 1029.15 1028.95 1028.80 1028.70 1028.53 1028.36 1028.26 1028.27 1028.27 1028.28 1028.24 1028.42 1028.60 1028.72 1028.79 1028.93 1028.98 1029.04 1028.77 1028.51 1028.44 1028.57 1028.76 1028.90 1028.97 1029.07 1029.29 1029.46 1029.61 1029.86 1029.85 1029.60 1029.37 1029.14
1032.95 1032.63 1032.30 1031.92 1031.54 1031.08 1030.64 1030.26 1029.90 1029.58 1029.33 1029.10 1028.89 1028.74 1028.61 1028.44 1028.42 1028.36 1028.33 1028.35 1028.31 1028.45 1028.58 1028.64 1028.66 1028.67 1028.66 1028.34 1028.11 1028.03 1028.08 1028.19 1028.21 1028.16 1028.26 1028.41 1028.64 1028.91 1029.20 1029.20 1029.08 1029.27 1029.29
1033.43 1033.16 1032.70 1032.37 1032.03 1031.65 1031.29 1030.98 1030.54 1030.10 1029.68 1029.31 1029.03 1028.80 1028.70 1028.60 1028.50 1028.40 1028.29 1028.25 1028.25 1028.20 1028.28 1028.33 1028.33 1028.34 1028.31 1028.06 1027.78 1027.71 1027.76 1027.56 1027.32 1027.15 1027.33 1027.47 1027.61 1027.86 1027.88 1027.91 1027.77 1028.09 1028.15
1033.58 1033.17 1032.76 1032.58 1032.40 1031.97 1031.58 1031.43 1031.07 1030.67 1030.17 1029.71 1029.38 1029.12 1028.88 1028.74 1028.67 1028.45 1028.35 1028.24 1028.20 1028.03 1027.94 1027.83 1027.93 1027.80 1027.70 1027.66 1027.31 1027.14 1027.02 1026.80 1026.63 1026.44 1026.43 1026.31 1026.27 1026.32 1026.58 1026.64 1026.49 1026.50 1026.85
1033.36 1032.94 1032.76 1032.62 1032.53 1032.11 1031.93 1031.79 1031.42 1030.99 1030.53 1030.16 1029.80 1029.42 1029.02 1028.76 1028.45 1028.27 1028.15 1028.04 1027.90 1027.73 1027.66 1027.53 1027.41 1027.39 1027.33 1027.42 1027.01 1026.61 1026.23 1026.01 1025.71 1025.42 1025.28 1025.39 1025.39 1025.23 1025.07 1024.89 1024.74 1024.86 1025.65
1032.78 1032.68 1032.61 1032.42 1032.25 1031.94 1031.99 1031.72 1031.50 1030.94 1030.55 1030.21 1029.85 1029.42 1029.06 1028.70 1028.35 1028.06 1027.72 1027.54 1027.51 1027.48 1027.41 1027.27 1027.09 1026.91 1026.76 1026.39 1026.05 1025.69 1025.23 1024.85 1024.45 1024.25 1024.28 1024.41 1024.35 1024.03 1023.83 1023.69 1023.54 1023.36 1023.58
1032.37 1032.19 1032.11 1031.84 1031.72 1031.60 1031.65 1031.49 1030.92 1030.64 1030.40 1030.20 1029.92 1029.51 1029.03 1028.55 1028.05 1027.68 1027.26 1027.03 1027.10 1027.09 1026.91 1026.72 1026.47 1026.19 1025.81 1025.62 1025.15 1024.67 1024.21 1023.74 1023.28 1023.17 1023.18 1023.08 1022.85 1022.76 1022.58 1022.35 1022.42 1022.45 1022.69
1032.03 1031.80 1031.50 1031.25 1031.15 1031.07 1030.84 1030.73 1030.37 1030.11 1030.01 1029.96 1029.63 1029.12 1028.77 1028.19 1027.63 1027.23 1026.75 1026.54 1026.50 1026.38 1026.31 1026.14 1025.86 1025.45 1025.15 1024.81 1024.45 1024.07 1023.92 1023.84 1023.20 1022.81 1022.45 1022.24 1021.92 1021.70 1021.67 1021.62 1021.54 1021.47 1021.75
1031.64 1031.43 1031.14 1030.71 1030.46 1030.36 1030.09 1029.90 1029.68 1029.52 1029.53 1029.30 1028.96 1028.62 1028.04 1027.74 1027.19 1026.57 1026.02 1025.73 1025.37 1025.32 1025.30 1025.11 1024.92 1024.83 1024.52 1023.74 1023.15 1023.43 1023.31 1023.01 1022.65 1022.54 1022.49 1022.19 1022.01 1021.83 1021.63 1021.55 1021.57 1021.63 1021.42
1031.26 1030.96 1030.68 1030.43 1030.08 1029.92 1029.61 1029.28 1029.07 1028.93 1028.84 1028.60 1028.15 1027.71 1027.20 1026.67 1026.25 1025.73 1024.88 1024.13 1023.46 1022.97 1022.55 1022.28 1022.49 1022.77 1022.36 1022.05 1021.75 1021.25 1020.77 1020.52 1020.55 1020.70 1020.97 1021.11 1021.22 1021.18 1020.90 1020.72 1020.63 1020.64 1020.84
Thickness
5559 5554 5553 5553 5554 5552 5546 5544 5545 5544 5543 5541 5536 5532 5530 5529 5531 5532 5532 5533 5533 5534 5535 5534 5533 5534 5534 5532 5530 5526 5524 5517 5516 5516 5505 5503 5504 5507 5509 5511 5514 5517 5519
5540 5543 5542 5540 5543 5543 5540 5534 5530 5529 5531 5532 5527 5523 5520 5514 5515 5519 5517 5519 5520 5520 5521 5522 5521 5521 5520 5518 5517 5516 5508 5503 5504 5501 5497 5489 5488 5491 5494 5497 5499 5501 5505
5526 5529 5530 5528 5527 5530 5532 5526 5519 5516 5516 5515 5513 5509 5505 5501 5502 5501 5501 5503 5505 5505 5505 5507 5508 5508 5507 5505 5505 5504 5503 5495 5490 5494 5496 5483 5484 5478 5479 5482 5484 5487 5490
5515 5511 5509 5505 5506 5506 5509 5511 5507 5502 5499 5500 5499 5500 5499 5494 5488 5486 5487 5487 5487 5489 5488 5491 5492 5492 5492 5491 5490 5490 5489 5489 5483 5480 5483 5486 5485 5475 5466 5467 5470 5473 5476
5497 5497 5495 5491 5487 5485 5486 5486 5488 5486 5483 5482 5482 5482 5480 5475 5472 5470 5469 5470 5471 5473 5471 5474 5475 5475 5476 5476 5476 5475 5474 5474 5471 5471 5467 5468 5468 5470 5469 5459 5457 5459 5461
5483 5480 5473 5470 5467 5465 5464 5466 5467 5467 5468 5466 5464 5464 5462 5458 5455 5454 5452 5450 5454 5453 5454 5456 5456 5457 5457 5458 5458 5459 5458 5457 5457 5457 5457 5456 5457 5454 5454 5448 5443 5444 5445
5434 5443 5447 5445 5444 5444 5445 5446 5447 5445 5446 5446 5445 5444 5443 5442 5440 5438 5436 5435 5434 5434 5435 5434 5437 5436 5437 5438 5439 5438 5439 5439 5440 5439 5438 5439 5439 5440 5439 5438 5431 5431 5429
5390 5400 5407 5419 5422 5424 5426 5427 5426 5423 5423 5423 5423 5423 5422 5422 5422 5421 5419 5418 5417 5417 5417 5418 5418 5417 5418 5420 5420 5419 5420 5419 5419 5420 5419 5420 5420 5421 5423 5422 5418 5413 5412
5363 5368 5377 5384 5388 5396 5401 5403 5400 5400 5399 5396 5398 5401 5402 5402 5403 5402 5401 5401 5399 5398 5398 5398 5397 5396 5397 5399 5400 5399 5401 5401 5400 5400 5400 5401 5399 5399 5401 5401 5401 5400 5396
5342 5347 5352 5356 5361 5368 5373 5372 5375 5376 5376 5376 5376 5379 5382 5381 5380 5381 5381 5381 5381 5381 5380 5379 5378 5378 5378 5380 5381 5380 5381 5382 5381 5380 5382 5381 5381 5380 5380 5382 5383 5383 5383
5320 5323 5326 5333 5338 5343 5346 5346 5349 5352 5353 5357 5359 5360 5361 5364 5363 5364 5363 5363 5363 5361 5361 5360 5358 5358 5358 5358 5361 5362 5363 5363 5363 5363 5364 5363 5363 5362 5361 5363 5364 5363 5364
5297 5302 5307 5311 5314 5316 5319 5321 5323 5326 5328 5332 5337 5338 5341 5342 5342 5343 5343 5343 5343 5342 5342 5342 5340 5339 5340 5341 5342 5344 5346 5347 5348 5347 5346 5344 5344 5344 5346 5346 5347 5347 5347
5278 5281 5286 5289 5290 5292 5294 5296 5298 5300 5303 5306 5309 5312 5314 5317 5318 5319 5320 5321 5321 5321 5321 5322 5321 5322 5322 5322 5323 5326 5327 5327 5327 5327 5328 5328 5330 5330 5331 5331 5330 5330 5331
5255 5257 5260 5262 5265 5269 5271 5272 5274 5277 5280 5284 5286 5287 5289 5292 5294 5296 5298 5299 5299 5300 5301 5301 5302 5303 5304 5305 5307 5310 5310 5311 5311 5311 5314 5313 5313 5314 5314 5313 5314 5313 5313
5235 5235 5235 5238 5240 5243 5246 5249 5251 5253 5256 5259 5263 5265 5267 5270 5272 5274 5276 5277 5279 5279 5279 5280 5280 5281 5284 5288 5290 5290 5291 5291 5292 5294 5294 5296 5297 5298 5298 5297 5296 5296 5296
5207 5210 5212 5215 5218 5219 5223 5227 5228 5231 5234 5236 5239 5242 5245 5248 5250 5252 5255 5256 5256 5258 5258 5259 5261 5265 5269 5272 5274 5275 5274 5276 5278 5279 5280 5281 5282 5283 5284 5284 5286 5283 5282
5184 5187 5188 5190 5193 5196 5200 5204 5207 5209 5212 5214 5217 5220 5223 5227 5229 5231 5233 5236 5236 5237 5239 5240 5242 5245 5247 5250 5252 5254 5256 5260 5262 5264 5266 5266 5266 5265 5265 5265 5267 5270 5273
5161 5163 5165 5167 5169 5173 5177 5180 5184 5187 5190 5193 5196 5199 5202 5205 5207 5209 5211 5212 5215 5217 5218 5221 5223 5226 5229 5230 5232 5234 5237 5241 5245 5248 5249 5250 5250 5248 5244 5245 5248 5250 5251
5133 5138 5139 5142 5146 5148 5151 5154 5158 5163 5167 5171 5174 5177 5179 5181 5184 5187 5189 5191 5194 5197 5198 5200 5203 5206 5208 5209 5211 5212 5215 5221 5227 5231 5232 5233 5234 5231 5226 5226 5232 5234 5234
5114 5119 5121 5121 5122 5125 5128 5130 5132 5135 5140 5145 5148 5151 5154 5157 5159 5163 5166 5168 5170 5174 5177 5181 5183 5187 5190 5188 5190 5191 5193 5201 5207 5212 5214 5215 5216 5214 5210 5208 5214 5220 5218
5093 5097 5095 5094 5096 5099 5102 5101 5104 5107 5113 5117 5122 5125 5129 5132 5135 5138 5141 5144 5148 5152 5156 5159 5162 5165 5166 5166 5167 5170 5172 5177 5184 5191 5196 5197 5196 5195 5194 5195 5199 5205 5193
5081 5079 5075 5074 5072 5073 5074 5076 5076 5082 5087 5091 5095 5098 5102 5106 5110 5114 5117 5120 5123 5127 5130 5134 5139 5142 5144 5147 5149 5150 5153 5159 5165 5172 5174 5176 5176 5176 5176 5177 5181 5182 5177
5061 5058 5054 5054 5050 5049 5046 5049 5051 5054 5059 5063 5066 5068 5073 5078 5083 5088 5092 5096 5097 5101 5105 5109 5115 5118 5120 5125 5126 5128 5133 5139 5143 5149 5151 5153 5156 5155 5155 5159 5159 5158 5153
5043 5040 5037 5034 5031 5026 5026 5026 5028 5030 5032 5034 5037 5041 5045 5050 5055 5060 5065 5068 5071 5071 5076 5082 5087 5091 5095 5099 5100 5103 5106 5110 5113 5117 5120 5125 5130 5135 5132 5134 5136 5137 5131
5025 5020 5016 5016 5013 5009 5008 5005 5007 5009 5012 5013 5013 5014 5020 5022 5027 5032 5036 5040 5045 5047 5050 5055 5059 5060 5065 5073 5076 5078 5082 5083 5085 5082 5087 5095 5099 5102 5103 5101 5100 5101 5104
5009 5005 5000 4997 4994 4991 4990 4988 4987 4988 4990 4992 4995 4997 5002 5005 5007 5010 5016 5021 5030 5035 5041 5047 5045 5043 5049 5051 5055 5061 5066 5069 5068 5059 5064 5070 5071 5071 5075 5075 5075 5075 5075